61P/Shajn-Schaldach (2015)

Japanese version
Home page
Updated on May 22, 2017

---------------------------------------------------------------------

* Profile

* Pictures

* Orbital Elements

Epoch 2015 Sept. 15.0 TT = JDT 2457280.5
T 2015 Oct. 2.14550 TT                                  MPCW
q   2.1139142            (2000.0)            P               Q
n   0.13953424     Peri.  221.91046     +0.90576363     -0.42268002
a   3.6814213      Node   163.01804     +0.41128983     +0.85939250
e   0.4257886      Incl.    6.00576     +0.10214167     +0.28772580
P   7.06
From 791 observations 2000 Apr. 22-2015 Aug. 25, mean residual 0".8.
     Nongravitational parameters A1 = +0.62, A2 = -0.2627.

* Finding Charts

* Magnitudes Graph

        m1 = 11.5 + 5 log d + 10.0 log r(t + 65)

---------------------------------------------------------------------

The orbital elements are published on M.P.E.C. 2015-Q71.
The charts are made with StellaNavigator Ver.8 (AstroArts).
The magnitudes graphs are made with Comet for Windows.

---------------------------------------------------------------------

Copyright(C) Seiichi Yoshida (comet@aerith.net). All rights reserved.